SENTINEL-2C

Last updated on Mon Nov 03 2025 00:02:36 GMT+0000 (Coordinated Universal Time)

1 60989U 24157A 25306.45940921 .00000175 00000+0 83416-4 0 9999 2 60989 98.5645 19.5434 0000991 99.9549 260.1746 14.30819588 60561
UTC large
Height (km)
Speed (km/s)
/
Latitude / Longitude
Inclination (degrees)
Orbital Period (minutes)
Azimuth
Elevation
Range (km)
Doppler Factor

Next 0 passes for location: London (51.5072 / 0.1276)

Sorry there are no passes over London.